GW0552 Weather Reports


time (UTC)temp
C
wind
direction
speed
KPH
gust
KPH
rain 1hr
cm
rain 24hr
cm
rain mn
cm
humidity
%
barometer
mb
20260903182608 34 60 0.0 1.6 0.00 0.00 0.00 61 1013.0
20260903182105 35 63 4.8 4.8 0.00 0.00 0.00 60 1012.8
20260903181603 35 106 0.0 1.6 0.00 0.00 0.00 62 1012.8
20260903181057 34 67 0.0 0.0 0.00 0.00 0.00 60 1012.9
20260903180553 34 60 0.0 0.0 0.00 0.00 0.00 59 1012.9
20260903180047 33 48 0.0 0.0 0.00 0.00 0.00 62 1012.9
20260903175546 33 49 0.0 0.0 0.00 0.00 0.00 62 1012.9
20260903175046 35 284 3.2 4.8 0.00 0.00 0.00 60 1013.1
20260903174540 36 311 3.2 4.8 0.00 0.00 0.00 58 1013.0
20260903174035 36 313 0.0 0.0 0.00 0.00 0.00 54 1013.0
20260903173530 36 61 0.0 0.0 0.00 0.00 0.00 52 1013.2
20260903173027 36 73 0.0 0.0 0.00 0.00 0.00 51 1013.1
20260903172521 35 71 3.2 3.2 0.00 0.00 0.00 54 1013.3
20260903172017 35 42 0.0 0.0 0.00 0.00 0.00 54 1013.2
20260903171511 35 53 1.6 1.6 0.00 0.00 0.00 55 1013.5
20260903171006 35 57 0.0 0.0 0.00 0.00 0.00 57 1013.5
20260903170500 35 72 3.2 3.2 0.00 0.00 0.00 56 1013.5
20260903170000 35 77 3.2 4.8 0.00 0.00 0.00 60 1013.7
20260903165453 35 63 1.6 1.6 0.00 0.00 0.00 58 1013.7
20260903164948 35 81 8.0 9.7 0.00 0.00 0.00 55 1013.5
20260903164438 35 22 0.0 0.0 0.00 0.00 0.00 58 1013.9
20260903163937 34 37 1.6 1.6 0.00 0.00 0.00 58 1013.6
20260903163433 35 357 1.6 3.2 0.00 0.00 0.00 55 1013.9
20260903162930 34 67 0.0 0.0 0.00 0.00 0.00 64 1013.8
20260903162426 34 358 3.2 3.2 0.00 0.00 0.00 60 1014.0
20260903161921 34 63 1.6 1.6 0.00 0.00 0.00 62 1014.0
20260903161416 33 26 1.6 3.2 0.00 0.00 0.00 63 1014.0
20260903160912 33 46 1.6 4.8 0.00 0.00 0.00 64 1013.9
20260903160411 33 353 6.4 8.0 0.00 0.00 0.00 63 1014.0
20260903155910 33 65 0.0 0.0 0.00 0.00 0.00 64 1014.2
20260903155405 33 22 3.2 3.2 0.00 0.00 0.00 66 1013.9
20260903154901 33 34 0.0 0.0 0.00 0.00 0.00 66 1014.0
20260903154357 33 66 0.0 0.0 0.00 0.00 0.00 68 1014.0
20260903153857 33 52 0.0 0.0 0.00 0.00 0.00 68 1014.1
20260903153352 33 66 1.6 1.6 0.00 0.00 0.00 66 1014.1
20260903152849 32 38 0.0 1.6 0.00 0.00 0.00 68 1014.0
20260903152344 32 38 0.0 1.6 0.00 0.00 0.00 68 1014.0
20260903151839 32 42 0.0 1.6 0.00 0.00 0.00 72 1014.3
20260903151335 32 59 0.0 0.0 0.00 0.00 0.00 74 1014.3
20260903150835 31 58 0.0 0.0 0.00 0.00 0.00 76 1014.2
20260903150329 31 328 4.8 4.8 0.00 0.00 0.00 75 1014.4
20260903145824 31 55 3.2 3.2 0.00 0.00 0.00 75 1014.2
20260903145319 30 40 1.6 1.6 0.00 0.00 0.00 79 1014.2
20260903144819 30 92 0.0 1.6 0.00 0.00 0.00 81 1014.1
20260903144314 30 30 1.6 1.6 0.00 0.00 0.00 77 1014.1
20260903143809 31 45 1.6 1.6 0.00 0.00 0.00 77 1014.4
20260903143306 31 49 0.0 0.0 0.00 0.00 0.00 84 1014.3
20260903142802 30 67 0.0 0.0 0.00 0.00 0.00 84 1014.5
20260903142257 30 85 3.2 3.2 0.00 0.00 0.00 80 1014.3
20260903141753 30 59 0.0 0.0 0.00 0.00 0.00 88 1014.2
20260903141249 28 62 3.2 3.2 0.00 0.00 0.00 85 1014.4
20260903140749 28 31 3.2 3.2 0.00 0.00 0.00 85 1014.2
20260903140244 28 67 3.2 4.8 0.00 0.00 0.00 87 1014.2
20260903135740 28 66 3.2 3.2 0.00 0.00 0.00 87 1014.3
20260903135235 27 50 1.6 1.6 0.00 0.00 0.00 89 1014.3
20260903134733 27 52 1.6 3.2 0.00 0.00 0.00 90 1014.2
20260903134230 27 32 4.8 4.8 0.00 0.00 0.00 92 1014.3
20260903133727 26 47 1.6 1.6 0.00 0.00 0.00 94 1014.2
20260903133224 26 63 3.2 3.2 0.00 0.00 0.00 95 1014.2
20260903132724 26 42 1.6 1.6 0.00 0.00 0.00 98 1014.3
20260903132224 25 60 0.0 0.0 0.00 0.00 0.00 99 1014.4
20260903131718 25 61 0.0 0.0 0.00 0.00 0.00 99 1014.3
20260903131213 25 62 0.0 0.0 0.00 0.00 0.00 99 1014.5
20260903130708 24 53 0.0 0.0 0.00 0.00 0.00 99 1014.5
20260903130202 23 54 0.0 0.0 0.00 0.00 0.00 99 1014.5
20260903125701 23 53 0.0 0.0 0.00 0.00 0.00 99 1014.5
20260903125156 23 53 0.0 0.0 0.00 0.00 0.00 99 1014.6
20260903124655 22 58 0.0 0.0 0.00 0.00 0.00 99 1014.9
20260903124156 22 59 0.0 0.0 0.00 0.00 0.00 99 1014.9
20260903123655 22 57 0.0 0.0 0.00 0.00 0.00 99 1014.6
20260903123154 22 58 0.0 0.0 0.00 0.00 0.00 99 1014.8
20260903122654 22 59 0.0 0.0 0.00 0.00 0.00 99 1014.6
20260903122148 21 62 0.0 0.0 0.00 0.00 0.00 99 1014.8
20260903121647 21 62 0.0 0.0 0.00 0.00 0.00 99 1014.6
20260903121144 21 62 0.0 0.0 0.00 0.00 0.00 99 1014.7
20260903120642 21 62 0.0 0.0 0.00 0.00 0.00 99 1014.8
20260903120137 21 62 0.0 0.0 0.00 0.00 0.00 99 1014.7
20260903115635 21 62 0.0 0.0 0.00 0.00 0.00 99 1014.8
20260903115131 21 62 0.0 0.0 0.00 0.00 0.00 99 1014.7
20260903114626 21 62 0.0 0.0 0.00 0.00 0.00 99 1014.7
20260903114121 21 62 0.0 0.0 0.00 0.00 0.00 99 1014.5
20260903113616 21 61 0.0 0.0 0.00 0.00 0.00 99 1014.6
20260903113113 21 62 0.0 0.0 0.00 0.00 0.00 99 1014.6
20260903112609 21 61 0.0 0.0 0.00 0.00 0.00 99 1014.4
20260903112108 21 61 0.0 0.0 0.00 0.00 0.00 99 1014.2
20260903111607 21 62 0.0 0.0 0.00 0.00 0.00 99 1014.4
20260903111103 21 62 0.0 0.0 0.00 0.00 0.00 99 1014.2
20260903110559 21 62 0.0 0.0 0.00 0.00 0.00 99 1014.2
20260903110054 21 62 0.0 0.0 0.00 0.00 0.00 99 1014.1
20260903105549 21 62 0.0 0.0 0.00 0.00 0.00 99 1014.0
20260903105044 21 62 0.0 0.0 0.00 0.00 0.00 99 1014.1
20260903104543 21 62 0.0 0.0 0.00 0.00 0.00 99 1013.9
20260903104039 21 62 0.0 0.0 0.00 0.00 0.00 99 1013.9
20260903103535 21 65 0.0 0.0 0.00 0.00 0.00 99 1013.8
20260903103031 21 63 0.0 0.0 0.00 0.00 0.00 99 1013.9
20260903102526 21 61 0.0 0.0 0.00 0.00 0.00 99 1013.6
20260903102025 21 61 0.0 0.0 0.00 0.00 0.00 99 1013.6
20260903101520 21 61 0.0 0.0 0.00 0.00 0.00 99 1013.6
20260903101016 21 61 0.0 0.0 0.00 0.00 0.00 99 1013.8
20260903100511 21 61 0.0 0.0 0.00 0.00 0.00 99 1013.9
20260903100009 21 60 0.0 0.0 0.00 0.00 0.00 99 1013.8
20260903095502 21 59 0.0 0.0 0.00 0.00 0.00 99 1013.6
20260903094957 21 59 0.0 0.0 0.00 0.00 0.00 99 1013.7
20260903094456 21 59 0.0 0.0 0.00 0.00 0.00 99 1013.6
20260903093953 21 61 0.0 0.0 0.00 0.00 0.00 99 1013.7
20260903093448 21 61 0.0 0.0 0.00 0.00 0.00 99 1013.6
20260903092944 21 61 0.0 0.0 0.00 0.00 0.00 99 1013.5
20260903092443 21 64 0.0 0.0 0.00 0.00 0.00 99 1013.7
20260903091942 21 62 0.0 0.0 0.00 0.00 0.00 99 1013.8
20260903091440 21 61 0.0 0.0 0.00 0.00 0.00 99 1013.8
20260903090936 21 61 0.0 0.0 0.00 0.00 0.00 99 1013.7
20260903090432 21 61 0.0 0.0 0.00 0.00 0.00 99 1013.8
20260903085930 21 61 0.0 0.0 0.00 0.00 0.00 99 1013.8
20260903085428 21 62 0.0 0.0 0.00 0.00 0.00 99 1013.8
20260903084928 21 61 0.0 0.0 0.00 0.00 0.00 99 1013.6
20260903084427 21 62 0.0 0.0 0.00 0.00 0.00 99 1013.6
20260903083922 21 57 0.0 0.0 0.00 0.00 0.00 99 1013.7
20260903083419 21 57 0.0 0.0 0.00 0.00 0.00 99 1013.4
20260903082917 21 53 0.0 0.0 0.00 0.00 0.00 99 1013.6
20260903082412 21 62 0.0 0.0 0.00 0.00 0.00 99 1013.6
20260903081908 22 72 1.6 3.2 0.00 0.00 0.00 99 1013.6
20260903081403 21 70 1.6 1.6 0.00 0.00 0.00 99 1013.6
20260903080859 21 65 1.6 1.6 0.00 0.00 0.00 99 1013.5
20260903080355 22 72 1.6 3.2 0.00 0.00 0.00 99 1013.5
20260903075849 21 70 0.0 0.0 0.00 0.00 0.00 99 1013.9
20260903075345 21 65 0.0 0.0 0.00 0.00 0.00 99 1013.5
20260903074844 22 63 0.0 0.0 0.00 0.00 0.00 99 1013.6
20260903074339 21 63 0.0 0.0 0.00 0.00 0.00 99 1013.6
20260903073835 21 63 0.0 0.0 0.00 0.00 0.00 99 1013.5
20260903073330 22 63 0.0 0.0 0.00 0.00 0.00 99 1013.7
20260903072825 22 63 0.0 0.0 0.00 0.00 0.00 99 1013.4
20260903072321 22 63 0.0 0.0 0.00 0.00 0.00 99 1013.5
20260903071818 22 63 0.0 0.0 0.00 0.00 0.00 99 1013.5
20260903071314 22 63 0.0 0.0 0.00 0.00 0.00 99 1013.3
20260903070808 22 63 0.0 0.0 0.00 0.00 0.00 99 1013.6
20260903070304 22 66 0.0 0.0 0.00 0.00 0.00 99 1013.4
20260903065759 22 65 0.0 0.0 0.00 0.00 0.00 99 1013.5
20260903065258 22 63 0.0 0.0 0.00 0.00 0.00 99 1013.6
20260903064757 22 61 0.0 0.0 0.00 0.00 0.00 99 1013.6
20260903064253 22 59 0.0 0.0 0.00 0.00 0.00 99 1013.7
20260903063749 22 59 0.0 0.0 0.00 0.00 0.00 99 1013.6
20260903063243 22 59 0.0 0.0 0.00 0.00 0.00 99 1013.4
20260903062739 22 59 0.0 0.0 0.00 0.00 0.00 99 1013.6
20260903062232 22 59 0.0 0.0 0.00 0.00 0.00 99 1013.5
20260903061729 22 60 0.0 0.0 0.00 0.00 0.00 99 1013.5
20260903061228 22 63 0.0 0.0 0.00 0.00 0.00 99 1013.6
20260903060724 22 63 0.0 0.0 0.00 0.00 0.00 99 1013.5
20260903060223 22 67 0.0 0.0 0.00 0.00 0.00 99 1013.3
20260903055720 22 59 0.0 0.0 0.00 0.00 0.00 99 1013.5
20260903055219 22 58 0.0 0.0 0.00 0.00 0.00 99 1013.4
20260903054714 22 57 0.0 0.0 0.00 0.00 0.00 99 1013.2
20260903054210 22 56 0.0 0.0 0.00 0.00 0.00 99 1013.5
20260903053707 22 56 0.0 0.0 0.00 0.00 0.00 99 1013.5
20260903053201 22 56 0.0 0.0 0.00 0.00 0.00 99 1013.4
20260903052657 22 55 0.0 0.0 0.00 0.00 0.00 99 1013.5
20260903052152 22 55 0.0 0.0 0.00 0.00 0.00 99 1013.5
20260903051647 22 68 0.0 0.0 0.00 0.00 0.00 99 1013.6
20260903051143 22 66 0.0 0.0 0.00 0.00 0.00 99 1013.5
20260903050638 23 63 0.0 0.0 0.00 0.00 0.00 99 1013.3
20260903050132 22 60 0.0 0.0 0.00 0.00 0.00 99 1013.4
20260903045631 23 65 0.0 0.0 0.00 0.00 0.00 99 1013.1
20260903045128 23 65 0.0 1.6 0.00 0.00 0.00 99 1013.2
20260903044624 23 64 0.0 0.0 0.00 0.00 0.00 99 1013.2
20260903044119 23 62 0.0 0.0 0.00 0.00 0.00 99 1013.3
20260903043616 23 61 0.0 0.0 0.00 0.00 0.00 99 1013.3
20260903043115 23 66 0.0 0.0 0.00 0.00 0.00 99 1013.1
20260903042609 23 70 0.0 0.0 0.00 0.00 0.00 99 1013.3
20260903042105 23 67 0.0 0.0 0.00 0.00 0.00 99 1013.2
20260903041601 23 67 0.0 0.0 0.00 0.00 0.00 99 1013.2
20260903041102 23 67 0.0 0.0 0.00 0.00 0.00 99 1013.4
20260903040600 23 67 0.0 0.0 0.00 0.00 0.00 99 1013.4
20260903040057 23 67 0.0 0.0 0.00 0.00 0.00 99 1013.3
20260903035553 23 67 0.0 0.0 0.00 0.00 0.00 99 1013.5
20260903035048 23 67 0.0 0.0 0.00 0.00 0.00 99 1013.3
20260903034543 23 67 0.0 0.0 0.00 0.00 0.00 99 1013.4
20260903034038 23 67 0.0 0.0 0.00 0.00 0.00 99 1013.4
20260903033533 23 67 0.0 0.0 0.00 0.00 0.00 99 1013.3
20260903033028 23 67 0.0 0.0 0.00 0.00 0.00 99 1013.5
20260903032523 23 67 0.0 0.0 0.00 0.00 0.00 99 1013.4
20260903032018 23 66 0.0 0.0 0.00 0.00 0.00 99 1013.6
20260903031513 23 66 0.0 0.0 0.00 0.00 0.00 99 1013.4
20260903031008 23 67 0.0 1.6 0.00 0.00 0.00 99 1013.6
20260903030504 23 81 1.6 1.6 0.00 0.00 0.00 99 1013.4
20260903025959 23 70 0.0 0.0 0.00 0.00 0.00 99 1013.4
20260903025455 23 69 0.0 0.0 0.00 0.00 0.00 99 1013.4
20260903024950 24 68 0.0 0.0 0.00 0.00 0.00 98 1013.5
20260903024449 24 68 0.0 0.0 0.00 0.00 0.00 98 1013.7
20260903023944 24 68 0.0 0.0 0.00 0.00 0.00 98 1013.5
20260903023440 24 68 0.0 0.0 0.00 0.00 0.00 98 1013.7
20260903022935 24 68 0.0 0.0 0.00 0.00 0.00 98 1013.6
20260903022434 24 68 0.0 0.0 0.00 0.00 0.00 98 1013.4
20260903021932 24 68 0.0 0.0 0.00 0.00 0.00 98 1013.1
20260903021428 24 68 0.0 0.0 0.00 0.00 0.00 98 1013.6
20260903020923 24 68 0.0 0.0 0.00 0.00 0.00 98 1013.3
20260903020418 25 68 0.0 0.0 0.00 0.00 0.00 98 1013.5
20260903015913 25 67 0.0 0.0 0.00 0.00 0.00 97 1013.3
20260903015409 25 65 0.0 0.0 0.00 0.00 0.00 97 1013.5
20260903014904 25 72 0.0 0.0 0.00 0.00 0.00 97 1013.3
20260903014403 25 71 0.0 0.0 0.00 0.00 0.00 97 1013.5
20260903013858 25 71 0.0 0.0 0.00 0.00 0.00 97 1013.5
20260903013358 25 66 0.0 0.0 0.00 0.00 0.00 96 1013.4
20260903012857 25 67 0.0 0.0 0.00 0.00 0.00 96 1013.5
20260903012356 25 66 0.0 0.0 0.00 0.00 0.00 96 1013.2
20260903011855 25 66 0.0 0.0 0.00 0.00 0.00 96 1013.1
20260903011350 25 66 0.0 0.0 0.00 0.00 0.00 96 1013.2
20260903010846 25 66 0.0 0.0 0.00 0.00 0.00 95 1013.2
20260903010341 25 66 0.0 0.0 0.00 0.00 0.00 95 1013.0
20260903005839 25 66 0.0 0.0 0.00 0.00 0.00 95 1012.9
20260903005334 25 66 0.0 0.0 0.00 0.00 0.00 95 1013.0
20260903004831 25 66 0.0 0.0 0.00 0.00 0.00 95 1012.9
20260903004326 25 71 0.0 0.0 0.00 0.00 0.00 94 1012.8
20260903003821 26 69 0.0 0.0 0.00 0.00 0.00 94 1013.0
20260903003316 26 66 0.0 0.0 0.00 0.00 0.00 94 1012.5
20260903002816 26 67 0.0 0.0 0.00 0.00 0.00 94 1012.6
20260903002315 26 74 1.6 1.6 0.00 0.00 0.00 93 1012.6
20260903001810 26 77 1.6 1.6 0.00 0.00 0.00 93 1012.6
20260903001306 26 77 1.6 1.6 0.00 0.00 0.00 92 1012.6
20260903000806 26 80 0.0 0.0 0.00 0.00 0.00 91 1012.5
20260903000303 26 80 0.0 0.0 0.00 0.00 0.00 90 1012.6
20260902235758 27 81 0.0 0.0 0.00 0.00 0.00 89 1012.6
20260902235254 27 80 0.0 0.0 0.00 0.00 0.00 89 1012.7
20260902234754 27 81 0.0 0.0 0.00 0.00 0.00 88 1012.5
20260902234248 27 80 0.0 0.0 0.00 0.00 0.00 86 1012.6
20260902233747 27 80 0.0 0.0 0.00 0.00 0.00 84 1012.7
20260902233242 28 80 0.0 0.0 0.00 0.00 0.00 83 1012.6
20260902232740 28 80 0.0 0.0 0.00 0.00 0.00 82 1012.8
20260902232235 28 80 0.0 0.0 0.00 0.00 0.00 81 1012.7
20260902231734 28 80 0.0 0.0 0.00 0.00 0.00 80 1012.7
20260902231230 28 80 0.0 0.0 0.00 0.00 0.00 79 1013.0
20260902230724 29 80 0.0 0.0 0.00 0.00 0.00 78 1012.5
20260902230223 29 80 0.0 0.0 0.00 0.00 0.00 76 1012.8
20260902225718 30 80 0.0 0.0 0.00 0.00 0.00 76 1012.9
20260902225219 30 80 0.0 0.0 0.00 0.00 0.00 74 1012.6
20260902224717 30 80 0.0 0.0 0.00 0.00 0.00 73 1012.9
20260902224212 31 80 0.0 0.0 0.00 0.00 0.00 72 1012.7
20260902223708 31 80 0.0 0.0 0.00 0.00 0.00 70 1012.9
20260902223208 31 80 0.0 0.0 0.00 0.00 0.00 70 1013.0
20260902222707 32 80 0.0 0.0 0.00 0.00 0.00 68 1012.7
20260902222201 32 75 0.0 0.0 0.00 0.00 0.00 66 1012.8
20260902221655 32 70 0.0 0.0 0.00 0.00 0.00 64 1012.8
20260902221154 33 69 1.6 1.6 0.00 0.00 0.00 63 1012.9
20260902220651 33 76 8.0 12.9 0.00 0.00 0.00 60 1012.9
20260902220145 33 88 3.2 4.8 0.00 0.00 0.00 62 1012.7
20260902215641 33 71 6.4 8.0 0.00 0.00 0.00 59 1012.8
20260902215136 33 62 8.0 9.7 0.00 0.00 0.00 59 1012.8
20260902214631 33 72 1.6 1.6 0.00 0.00 0.00 60 1012.8
20260902214130 34 88 6.4 8.0 0.00 0.00 0.00 58 1012.8
20260902213626 33 64 1.6 1.6 0.00 0.00 0.00 60 1012.7
20260902213125 34 75 1.6 1.6 0.00 0.00 0.00 62 1012.9
20260902212620 34 81 1.6 1.6 0.00 0.00 0.00 61 1012.9
20260902212117 34 75 4.8 4.8 0.00 0.00 0.00 59 1012.8
20260902211613 34 95 3.2 4.8 0.00 0.00 0.00 58 1012.9
20260902211108 35 75 4.8 4.8 0.00 0.00 0.00 59 1013.0
20260902210607 35 80 3.2 3.2 0.00 0.00 0.00 58 1013.1
20260902205601 35 74 0.0 0.0 0.00 0.00 0.00 59 1012.9
20260902205057 35 78 0.0 1.6 0.00 0.00 0.00 57 1013.1
20260902204556 35 78 0.0 0.0 0.00 0.00 0.00 57 1013.0
20260902204052 35 83 0.0 0.0 0.00 0.00 0.00 57 1013.3
20260902203547 35 66 0.0 0.0 0.00 0.00 0.00 57 1013.5
20260902203046 35 85 0.0 0.0 0.00 0.00 0.00 59 1013.4
20260902202542 35 79 6.4 8.0 0.00 0.00 0.00 56 1013.4
20260902202038 35 70 0.0 1.6 0.00 0.00 0.00 57 1013.3
20260902201534 35 54 4.8 8.0 0.00 0.00 0.00 57 1013.3
20260902201033 35 88 3.2 3.2 0.00 0.00 0.00 54 1013.4
20260902200528 35 77 0.0 0.0 0.00 0.00 0.00 57 1013.8
20260902200024 35 75 0.0 0.0 0.00 0.00 0.00 59 1013.7
20260902195520 33 32 3.2 3.2 0.00 0.00 0.00 57 1013.7
20260902195019 33 89 3.2 4.8 0.00 0.00 0.00 59 1013.7
20260902194519 35 48 1.6 1.6 0.00 0.00 0.00 57 1013.8
20260902194014 34 34 0.0 1.6 0.00 0.00 0.00 56 1014.0
20260902193510 35 62 8.0 11.3 0.00 0.00 0.00 56 1013.8
20260902193009 35 84 4.8 8.0 0.00 0.00 0.00 54 1013.9
20260902192508 35 85 1.6 3.2 0.00 0.00 0.00 56 1013.9
20260902192007 34 0 4.8 4.8 0.00 0.00 0.00 58 1013.8
20260902191502 34 92 8.0 9.7 0.00 0.00 0.00 57 1013.9
20260902190957 34 142 4.8 9.7 0.00 0.00 0.00 61 1013.8
20260902190452 34 91 6.4 9.7 0.00 0.00 0.00 60 1014.1
20260902185948 35 66 1.6 1.6 0.00 0.00 0.00 56 1014.0
20260902185444 34 81 4.8 8.0 0.00 0.00 0.00 56 1014.1
20260902184939 34 103 3.2 4.8 0.00 0.00 0.00 59 1014.0
20260902184434 35 69 1.6 3.2 0.00 0.00 0.00 58 1014.2
20260902183929 35 69 1.6 1.6 0.00 0.00 0.00 57 1014.2
20260902183426 34 126 8.0 8.0 0.00 0.00 0.00 56 1014.3